Location: ??????
(30.0081°N, 31.2109°E)
Time: 07:11:14
(UTC+00:00)

Cosmos 1703 Rocket - Pass Details

Date: 03 March 2021
Orbit: 604 x 634 km, 82.5° (Epoch: 15 April)

Event Time Altitude Azimuth Distance (km) Brightness Sun altitude
Rises 17:15:01 0° 0° (N) 2,890 7.0 -18.0°
Reaches altitude 10° 17:17:19 10° 6° (N) 1,977 6.1 -18.5°
Maximum altitude 17:21:33 50° 82° (E) 784 3.6 -19.4°
Enters shadow 17:22:13 45° 113° (ESE) 833 3.7 -19.5°
